Time,TemperatureF,DewpointF,PressureIn,WindDirection,WindDirectionDegrees,WindSpeedMPH,WindSpeedGustMPH,Humidity,HourlyPrecipIn,Conditions,Clouds,dailyrainin,SoftwareType,DateUTC
2013-01-24 00:01:00,58.9,52.4,30.09,SSW,203,4.3,5.6,79,0.00,,,0.00,WUHU216HW,2013-01-24 06:01:00,
2013-01-24 00:06:00,58.7,52.2,30.09,South,180,3.1,4.7,79,0.00,,,0.00,WUHU216HW,2013-01-24 06:06:00,
2013-01-24 00:11:00,58.5,52.4,30.09,South,180,2.9,4.5,80,0.00,,,0.00,WUHU216HW,2013-01-24 06:11:00,
2013-01-24 00:16:00,58.5,52.4,30.09,South,180,2.5,3.4,80,0.00,,,0.00,WUHU216HW,2013-01-24 06:16:00,
2013-01-24 00:21:00,58.3,52.2,30.09,South,180,3.4,3.4,80,0.00,,,0.00,WUHU216HW,2013-01-24 06:21:00,
2013-01-24 00:26:00,58.3,52.6,30.09,South,180,3.4,4.0,81,0.00,,,0.00,WUHU216HW,2013-01-24 06:26:00,
2013-01-24 00:31:00,58.0,52.2,30.09,South,180,3.6,4.0,81,0.00,,,0.00,WUHU216HW,2013-01-24 06:31:00,
2013-01-24 00:36:00,57.8,52.0,30.09,South,180,3.4,4.0,81,0.00,,,0.00,WUHU216HW,2013-01-24 06:36:00,
2013-01-24 00:41:00,57.8,52.0,30.09,SSW,203,3.8,4.0,81,0.00,,,0.00,WUHU216HW,2013-01-24 06:41:00,
2013-01-24 00:46:00,57.6,51.9,30.09,South,180,3.6,4.9,81,0.00,,,0.00,WUHU216HW,2013-01-24 06:46:00,
2013-01-24 00:51:00,57.6,51.9,30.09,SSW,203,3.4,4.9,81,0.00,,,0.00,WUHU216HW,2013-01-24 06:51:00,
2013-01-24 00:56:00,57.6,52.1,30.09,SSE,158,2.7,4.5,82,0.00,,,0.00,WUHU216HW,2013-01-24 06:56:00,
2013-01-24 01:01:00,57.6,52.1,30.09,SSW,203,3.6,5.1,82,0.00,,,0.00,WUHU216HW,2013-01-24 07:01:00,
2013-01-24 01:06:00,57.6,52.1,30.09,SSE,158,3.8,5.1,82,0.00,,,0.00,WUHU216HW,2013-01-24 07:06:00,
2013-01-24 01:11:00,57.6,52.1,30.09,South,180,4.0,4.7,82,0.00,,,0.00,WUHU216HW,2013-01-24 07:11:00,
2013-01-24 01:16:00,57.4,52.3,30.09,SSE,158,3.6,4.7,83,0.00,,,0.00,WUHU216HW,2013-01-24 07:16:00,
2013-01-24 01:21:00,57.4,52.3,30.09,SSE,158,3.4,5.1,83,0.00,,,0.00,WUHU216HW,2013-01-24 07:21:00,
2013-01-24 01:26:00,57.2,52.1,30.09,South,180,4.5,6.3,83,0.00,,,0.00,WUHU216HW,2013-01-24 07:26:00,
2013-01-24 01:31:00,57.2,52.1,30.09,South,180,3.8,6.3,83,0.00,,,0.00,WUHU216HW,2013-01-24 07:31:00,
2013-01-24 01:36:00,57.2,52.1,30.09,SSE,158,4.0,5.1,83,0.00,,,0.00,WUHU216HW,2013-01-24 07:36:00,
2013-01-24 01:42:00,57.2,52.1,30.09,South,180,4.5,5.1,83,0.00,,,0.00,WUHU216HW,2013-01-24 07:42:00,
2013-01-24 01:46:00,57.1,51.9,30.09,South,180,3.6,5.1,83,0.00,,,0.00,WUHU216HW,2013-01-24 07:46:00,
2013-01-24 01:52:00,56.9,52.0,30.09,South,180,4.0,4.7,84,0.00,,,0.00,WUHU216HW,2013-01-24 07:52:00,
2013-01-24 01:57:00,56.7,51.8,30.09,South,180,4.5,5.4,84,0.00,,,0.00,WUHU216HW,2013-01-24 07:57:00,
2013-01-24 02:02:00,56.5,51.7,30.09,South,180,4.3,5.4,84,0.00,,,0.00,WUHU216HW,2013-01-24 08:02:00,
2013-01-24 02:07:00,56.5,51.4,30.09,South,180,4.5,5.4,83,0.00,,,0.00,WUHU216HW,2013-01-24 08:07:00,
2013-01-24 02:12:00,56.3,51.2,30.09,SSE,158,4.0,5.4,83,0.00,,,0.00,WUHU216HW,2013-01-24 08:12:00,
2013-01-24 02:17:00,56.2,51.0,30.09,South,180,3.4,4.9,83,0.00,,,0.00,WUHU216HW,2013-01-24 08:17:00,
2013-01-24 02:22:00,56.0,51.1,30.09,South,180,3.4,4.3,84,0.00,,,0.00,WUHU216HW,2013-01-24 08:22:00,
2013-01-24 02:27:00,55.8,50.9,30.09,SSW,203,4.5,4.5,84,0.00,,,0.00,WUHU216HW,2013-01-24 08:27:00,
2013-01-24 02:32:00,55.6,50.8,30.09,SSW,203,4.5,4.7,84,0.00,,,0.00,WUHU216HW,2013-01-24 08:32:00,
2013-01-24 02:37:00,55.4,50.6,30.09,South,180,4.3,4.7,84,0.00,,,0.00,WUHU216HW,2013-01-24 08:37:00,
2013-01-24 02:42:00,55.4,50.9,30.09,South,180,4.3,4.9,85,0.00,,,0.00,WUHU216HW,2013-01-24 08:42:00,
2013-01-24 02:47:00,55.4,50.9,30.09,South,180,4.5,5.1,85,0.00,,,0.00,WUHU216HW,2013-01-24 08:47:00,
2013-01-24 02:52:00,55.4,50.9,30.09,South,180,3.4,5.1,85,0.00,,,0.00,WUHU216HW,2013-01-24 08:52:00,
2013-01-24 02:57:00,55.4,51.3,30.09,South,180,4.7,4.7,86,0.00,,,0.00,WUHU216HW,2013-01-24 08:57:00,
2013-01-24 03:02:00,55.3,50.8,30.09,South,180,3.4,5.8,85,0.00,,,0.00,WUHU216HW,2013-01-24 09:02:00,
2013-01-24 03:07:00,55.3,51.1,30.09,South,180,3.8,5.8,86,0.00,,,0.00,WUHU216HW,2013-01-24 09:07:00,
2013-01-24 03:12:00,55.3,51.1,30.09,SE,135,2.9,4.7,86,0.00,,,0.00,WUHU216HW,2013-01-24 09:12:00,
2013-01-24 03:17:00,55.1,51.0,30.09,SSE,158,4.3,4.7,86,0.00,,,0.00,WUHU216HW,2013-01-24 09:17:00,
2013-01-24 03:22:00,55.1,51.0,30.09,SSE,158,3.1,4.3,86,0.00,,,0.00,WUHU216HW,2013-01-24 09:22:00,
2013-01-24 03:27:00,55.1,51.0,30.09,SSE,158,2.7,4.3,86,0.00,,,0.00,WUHU216HW,2013-01-24 09:27:00,
2013-01-24 03:32:00,55.1,51.0,30.09,SSE,158,2.2,4.0,86,0.00,,,0.00,WUHU216HW,2013-01-24 09:32:00,
2013-01-24 03:37:00,55.1,51.2,30.09,SSE,158,2.9,3.4,87,0.00,,,0.00,WUHU216HW,2013-01-24 09:37:00,
2013-01-24 03:42:00,55.1,51.2,30.09,SSE,158,3.1,3.4,87,0.00,,,0.00,WUHU216HW,2013-01-24 09:42:00,
2013-01-24 03:47:00,55.3,51.4,30.09,SSE,158,2.7,3.4,87,0.00,,,0.00,WUHU216HW,2013-01-24 09:47:00,
2013-01-24 03:52:00,55.3,51.4,30.09,SSE,158,3.1,3.6,87,0.00,,,0.00,WUHU216HW,2013-01-24 09:52:00,
2013-01-24 03:57:00,55.1,51.6,30.09,SSE,158,3.1,3.6,88,0.00,,,0.00,WUHU216HW,2013-01-24 09:57:00,
2013-01-24 04:02:00,55.1,51.6,30.09,SSE,158,4.0,4.0,88,0.00,,,0.00,WUHU216HW,2013-01-24 10:02:00,
2013-01-24 04:07:00,55.1,51.6,30.09,SSE,158,3.6,4.0,88,0.00,,,0.00,WUHU216HW,2013-01-24 10:07:00,
2013-01-24 04:12:00,54.9,51.4,30.09,SSE,158,4.0,4.7,88,0.00,,,0.00,WUHU216HW,2013-01-24 10:12:00,
2013-01-24 04:17:00,55.1,51.6,30.09,SSE,158,4.0,4.7,88,0.00,,,0.00,WUHU216HW,2013-01-24 10:17:00,
2013-01-24 04:22:00,54.9,51.7,30.09,SSE,158,3.4,4.5,89,0.00,,,0.00,WUHU216HW,2013-01-24 10:22:00,
2013-01-24 04:27:00,54.9,51.4,30.09,South,180,3.4,4.3,88,0.00,,,0.00,WUHU216HW,2013-01-24 10:27:00,
2013-01-24 04:32:00,54.9,51.4,30.09,South,180,2.5,4.3,88,0.00,,,0.00,WUHU216HW,2013-01-24 10:32:00,
2013-01-24 04:37:00,54.9,51.4,30.09,South,180,3.4,4.7,88,0.00,,,0.00,WUHU216HW,2013-01-24 10:37:00,
2013-01-24 04:42:00,54.7,51.5,30.09,SSE,158,4.0,4.7,89,0.00,,,0.00,WUHU216HW,2013-01-24 10:42:00,
2013-01-24 04:47:00,54.7,51.5,30.09,SSE,158,4.7,5.1,89,0.00,,,0.00,WUHU216HW,2013-01-24 10:47:00,
2013-01-24 04:52:00,54.7,51.5,30.09,SSW,203,4.0,6.0,89,0.00,,,0.00,WUHU216HW,2013-01-24 10:52:00,
2013-01-24 04:57:00,54.7,51.5,30.09,South,180,3.8,6.0,89,0.00,,,0.00,WUHU216HW,2013-01-24 10:57:00,
2013-01-24 05:02:00,54.9,51.7,30.09,South,180,3.4,5.6,89,0.00,,,0.00,WUHU216HW,2013-01-24 11:02:00,
2013-01-24 05:07:00,55.1,52.2,30.09,SSE,158,4.7,5.8,90,0.00,,,0.00,WUHU216HW,2013-01-24 11:07:00,
2013-01-24 05:12:00,55.1,52.2,30.09,SSE,158,5.6,5.8,90,0.00,,,0.00,WUHU216HW,2013-01-24 11:12:00,
2013-01-24 05:17:00,55.1,52.2,30.09,South,180,5.1,6.3,90,0.00,,,0.00,WUHU216HW,2013-01-24 11:17:00,
2013-01-24 05:22:00,55.3,52.4,30.08,South,180,5.8,6.5,90,0.00,,,0.00,WUHU216HW,2013-01-24 11:22:00,
2013-01-24 05:27:00,55.3,52.4,30.08,SSW,203,5.4,7.2,90,0.00,,,0.00,WUHU216HW,2013-01-24 11:27:00,
2013-01-24 05:32:00,55.3,52.7,30.08,South,180,5.4,7.2,91,0.00,,,0.00,WUHU216HW,2013-01-24 11:32:00,
2013-01-24 05:37:00,55.4,52.8,30.08,South,180,5.6,6.9,91,0.00,,,0.00,WUHU216HW,2013-01-24 11:37:00,
2013-01-24 05:42:00,55.4,52.8,30.08,SSE,158,5.4,6.9,91,0.00,,,0.00,WUHU216HW,2013-01-24 11:42:00,
2013-01-24 05:47:00,55.6,53.0,30.09,SSE,158,6.0,7.6,91,0.00,,,0.00,WUHU216HW,2013-01-24 11:47:00,
2013-01-24 05:52:00,55.6,53.0,30.09,South,180,6.3,7.6,91,0.00,,,0.00,WUHU216HW,2013-01-24 11:52:00,
2013-01-24 05:57:00,55.6,53.0,30.09,SSW,203,5.1,6.9,91,0.00,,,0.00,WUHU216HW,2013-01-24 11:57:00,
2013-01-24 06:02:00,55.8,53.2,30.09,SW,225,5.1,7.2,91,0.00,,,0.00,WUHU216HW,2013-01-24 12:02:00,
2013-01-24 06:07:00,55.8,53.2,30.09,SSW,203,5.4,7.2,91,0.00,,,0.00,WUHU216HW,2013-01-24 12:07:00,
2013-01-24 06:12:00,55.8,53.2,30.09,SSW,203,6.7,7.2,91,0.00,,,0.00,WUHU216HW,2013-01-24 12:12:00,
2013-01-24 06:17:00,55.8,53.2,30.09,SSW,203,4.7,7.2,91,0.00,,,0.00,WUHU216HW,2013-01-24 12:17:00,
2013-01-24 06:22:00,55.8,53.2,30.09,SSW,203,6.3,7.2,91,0.00,,,0.00,WUHU216HW,2013-01-24 12:22:00,
2013-01-24 06:27:00,55.8,53.2,30.09,SSW,203,4.0,7.2,91,0.00,,,0.00,WUHU216HW,2013-01-24 12:27:00,
2013-01-24 06:32:00,55.8,53.5,30.09,SSW,203,4.5,6.7,92,0.00,,,0.00,WUHU216HW,2013-01-24 12:32:00,
2013-01-24 06:37:00,56.0,53.6,30.09,SSW,203,5.4,7.6,92,0.00,,,0.00,WUHU216HW,2013-01-24 12:37:00,
2013-01-24 06:42:00,56.0,53.6,30.09,South,180,6.3,7.6,92,0.00,,,0.00,WUHU216HW,2013-01-24 12:42:00,
2013-01-24 06:47:00,56.0,53.6,30.09,SSW,203,4.3,7.4,92,0.00,,,0.00,WUHU216HW,2013-01-24 12:47:00,
2013-01-24 06:52:00,56.0,53.6,30.09,SSE,158,4.7,7.6,92,0.00,,,0.00,WUHU216HW,2013-01-24 12:52:00,
2013-01-24 06:57:00,56.0,53.6,30.09,SSE,158,7.8,7.8,92,0.00,,,0.00,WUHU216HW,2013-01-24 12:57:00,
2013-01-24 07:02:00,56.2,53.8,30.09,SSE,158,4.5,7.8,92,0.00,,,0.00,WUHU216HW,2013-01-24 13:02:00,
2013-01-24 07:07:00,56.2,53.8,30.09,South,180,6.0,7.8,92,0.00,,,0.00,WUHU216HW,2013-01-24 13:07:00,
2013-01-24 07:12:00,56.2,53.8,30.09,SSW,203,4.7,7.2,92,0.00,,,0.00,WUHU216HW,2013-01-24 13:12:00,
2013-01-24 07:17:00,56.2,53.8,30.09,SSW,203,6.9,7.6,92,0.00,,,0.00,WUHU216HW,2013-01-24 13:17:00,
2013-01-24 07:22:00,56.3,54.0,30.10,SSW,203,4.0,8.5,92,0.00,,,0.00,WUHU216HW,2013-01-24 13:22:00,
2013-01-24 07:27:00,56.5,54.2,30.10,SSW,203,6.5,8.5,92,0.00,,,0.00,WUHU216HW,2013-01-24 13:27:00,
2013-01-24 07:32:00,56.5,54.2,30.10,SSW,203,7.6,7.6,92,0.00,,,0.00,WUHU216HW,2013-01-24 13:32:00,
2013-01-24 07:37:00,56.5,54.2,30.10,South,180,6.9,9.2,92,0.00,,,0.00,WUHU216HW,2013-01-24 13:37:00,
2013-01-24 07:42:00,56.5,54.2,30.10,SSW,203,5.4,9.2,92,0.00,,,0.00,WUHU216HW,2013-01-24 13:42:00,
2013-01-24 07:47:00,56.7,54.4,30.10,SSW,203,6.3,8.5,92,0.00,,,0.00,WUHU216HW,2013-01-24 13:47:00,
2013-01-24 07:52:00,56.7,54.4,30.10,SW,225,5.4,8.5,92,0.00,,,0.00,WUHU216HW,2013-01-24 13:52:00,
2013-01-24 07:57:00,56.9,54.5,30.11,SSW,203,8.5,8.5,92,0.00,,,0.00,WUHU216HW,2013-01-24 13:57:00,
2013-01-24 08:02:00,56.9,54.5,30.11,SSE,158,7.4,8.5,92,0.00,,,0.00,WUHU216HW,2013-01-24 14:02:00,
2013-01-24 08:07:00,56.9,54.5,30.11,South,180,8.5,9.8,92,0.00,,,0.00,WUHU216HW,2013-01-24 14:07:00,
2013-01-24 08:12:00,57.1,54.7,30.11,SW,225,7.2,9.8,92,0.00,,,0.00,WUHU216HW,2013-01-24 14:12:00,
2013-01-24 08:17:00,57.1,54.7,30.11,SSW,203,4.7,8.5,92,0.00,,,0.00,WUHU216HW,2013-01-24 14:17:00,
2013-01-24 08:22:00,57.2,54.9,30.11,SSW,203,7.4,8.1,92,0.00,,,0.00,WUHU216HW,2013-01-24 14:22:00,
2013-01-24 08:27:00,57.2,54.9,30.11,SSW,203,5.8,10.5,92,0.00,,,0.00,WUHU216HW,2013-01-24 14:27:00,
2013-01-24 08:32:00,57.4,55.1,30.11,SSW,203,6.3,10.5,92,0.00,,,0.00,WUHU216HW,2013-01-24 14:32:00,
2013-01-24 08:37:00,57.4,55.1,30.11,SSW,203,4.7,8.9,92,0.00,,,0.00,WUHU216HW,2013-01-24 14:37:00,
2013-01-24 08:42:00,57.6,55.3,30.11,South,180,8.1,10.5,92,0.00,,,0.00,WUHU216HW,2013-01-24 14:42:00,
2013-01-24 08:47:00,57.6,55.3,30.11,SSW,203,9.4,10.5,92,0.00,,,0.00,WUHU216HW,2013-01-24 14:47:00,
2013-01-24 08:52:00,57.4,55.1,30.12,SSW,203,6.9,9.4,92,0.00,,,0.00,WUHU216HW,2013-01-24 14:52:00,
2013-01-24 08:57:00,57.6,55.3,30.12,SSW,203,5.4,9.8,92,0.00,,,0.00,WUHU216HW,2013-01-24 14:57:00,
2013-01-24 09:02:00,57.6,55.3,30.12,SSW,203,6.3,10.1,92,0.00,,,0.00,WUHU216HW,2013-01-24 15:02:00,
2013-01-24 09:07:00,57.6,55.3,30.12,South,180,8.5,10.1,92,0.00,,,0.00,WUHU216HW,2013-01-24 15:07:00,
2013-01-24 09:12:00,57.6,55.3,30.12,SSW,203,6.0,8.5,92,0.00,,,0.00,WUHU216HW,2013-01-24 15:12:00,
2013-01-24 09:17:00,57.8,55.4,30.12,SSW,203,4.7,9.2,92,0.00,,,0.00,WUHU216HW,2013-01-24 15:17:00,
2013-01-24 09:22:00,57.8,55.4,30.12,SSW,203,9.2,9.2,92,0.00,,,0.00,WUHU216HW,2013-01-24 15:22:00,
2013-01-24 09:27:00,58.0,55.6,30.12,SW,225,7.8,9.2,92,0.00,,,0.00,WUHU216HW,2013-01-24 15:27:00,
2013-01-24 09:32:00,58.0,55.6,30.12,SSW,203,6.5,11.2,92,0.00,,,0.00,WUHU216HW,2013-01-24 15:32:00,
2013-01-24 09:37:00,58.1,55.8,30.12,South,180,4.7,11.2,92,0.00,,,0.00,WUHU216HW,2013-01-24 15:37:00,
2013-01-24 09:42:00,58.5,56.2,30.12,SSW,203,9.4,9.8,92,0.00,,,0.00,WUHU216HW,2013-01-24 15:42:00,
2013-01-24 09:47:00,58.5,56.2,30.12,South,180,11.4,11.4,92,0.00,,,0.00,WUHU216HW,2013-01-24 15:47:00,
2013-01-24 09:52:00,58.7,56.3,30.12,SSE,158,6.0,11.4,92,0.00,,,0.00,WUHU216HW,2013-01-24 15:52:00,
2013-01-24 09:57:00,59.0,56.4,30.12,SSW,203,6.9,12.1,91,0.00,,,0.00,WUHU216HW,2013-01-24 15:57:00,
2013-01-24 10:02:00,59.0,56.7,30.12,SSE,158,10.5,12.1,92,0.00,,,0.00,WUHU216HW,2013-01-24 16:02:00,
2013-01-24 10:07:00,59.2,56.9,30.12,South,180,6.9,10.5,92,0.00,,,0.00,WUHU216HW,2013-01-24 16:07:00,
2013-01-24 10:12:00,59.4,56.8,30.12,SSE,158,6.3,10.5,91,0.00,,,0.00,WUHU216HW,2013-01-24 16:12:00,
2013-01-24 10:17:00,59.6,56.7,30.13,South,180,7.4,12.1,90,0.00,,,0.00,WUHU216HW,2013-01-24 16:17:00,
2013-01-24 10:22:00,59.9,57.1,30.13,WSW,248,5.6,12.1,90,0.00,,,0.00,WUHU216HW,2013-01-24 16:22:00,
2013-01-24 10:27:00,60.3,57.4,30.12,SSW,203,7.6,10.7,90,0.00,,,0.00,WUHU216HW,2013-01-24 16:27:00,
2013-01-24 10:32:00,60.3,57.4,30.13,SSE,158,5.8,10.7,90,0.00,,,0.00,WUHU216HW,2013-01-24 16:32:00,
2013-01-24 10:37:00,60.5,57.2,30.12,SSW,203,9.8,11.0,89,0.00,,,0.00,WUHU216HW,2013-01-24 16:37:00,
2013-01-24 10:42:00,61.2,57.7,30.12,SSW,203,9.8,11.0,88,0.00,,,0.00,WUHU216HW,2013-01-24 16:42:00,
2013-01-24 10:47:00,61.7,57.9,30.12,SSW,203,8.7,11.0,87,0.00,,,0.00,WUHU216HW,2013-01-24 16:47:00,
2013-01-24 10:52:00,62.1,58.2,30.12,SSW,203,8.5,10.5,87,0.00,,,0.00,WUHU216HW,2013-01-24 16:52:00,
2013-01-24 10:57:00,62.3,57.7,30.13,SW,225,10.7,10.7,85,0.00,,,0.00,WUHU216HW,2013-01-24 16:57:00,
2013-01-24 11:02:00,62.3,57.7,30.13,South,180,8.7,10.7,85,0.00,,,0.00,WUHU216HW,2013-01-24 17:02:00,
2013-01-24 11:07:00,62.8,58.2,30.13,South,180,7.8,10.7,85,0.00,,,0.00,WUHU216HW,2013-01-24 17:07:00,
2013-01-24 11:12:00,63.7,58.4,30.12,SW,225,6.0,9.8,83,0.00,,,0.00,WUHU216HW,2013-01-24 17:12:00,
2013-01-24 11:17:00,64.3,58.7,30.12,SSW,203,9.8,10.7,82,0.00,,,0.00,WUHU216HW,2013-01-24 17:17:00,
2013-01-24 11:22:00,64.8,59.2,30.12,SSW,203,6.9,10.7,82,0.00,,,0.00,WUHU216HW,2013-01-24 17:22:00,
2013-01-24 11:27:00,65.2,59.2,30.12,SSW,203,10.1,10.5,81,0.00,,,0.00,WUHU216HW,2013-01-24 17:27:00,
2013-01-24 11:32:00,65.3,59.0,30.12,SW,225,6.9,10.5,80,0.00,,,0.00,WUHU216HW,2013-01-24 17:32:00,
2013-01-24 11:37:00,65.5,58.9,30.11,SSW,203,8.7,9.8,79,0.00,,,0.00,WUHU216HW,2013-01-24 17:37:00,
2013-01-24 11:42:00,65.9,59.2,30.11,SSW,203,9.8,9.8,79,0.00,,,0.00,WUHU216HW,2013-01-24 17:42:00,
2013-01-24 11:47:00,65.5,58.5,30.11,SSW,203,13.0,13.0,78,0.00,,,0.00,WUHU216HW,2013-01-24 17:47:00,
2013-01-24 11:52:00,66.1,58.6,30.10,SW,225,9.2,13.0,77,0.00,,,0.00,WUHU216HW,2013-01-24 17:52:00,
2013-01-24 11:57:00,66.1,58.6,30.09,SSW,203,10.7,14.1,77,0.00,,,0.00,WUHU216HW,2013-01-24 17:57:00,
2013-01-24 12:02:00,66.2,58.8,30.08,SSW,203,10.5,14.1,77,0.00,,,0.00,WUHU216HW,2013-01-24 18:02:00,
2013-01-24 12:07:00,66.4,59.0,30.08,SSW,203,7.4,12.1,77,0.00,,,0.00,WUHU216HW,2013-01-24 18:07:00,
2013-01-24 12:12:00,66.6,58.8,30.08,SSW,203,9.8,12.3,76,0.00,,,0.00,WUHU216HW,2013-01-24 18:12:00,
2013-01-24 12:17:00,66.6,58.4,30.08,SW,225,7.2,12.8,75,0.00,,,0.00,WUHU216HW,2013-01-24 18:17:00,
2013-01-24 12:22:00,66.6,58.8,30.08,SE,135,10.5,12.8,76,0.00,,,0.00,WUHU216HW,2013-01-24 18:22:00,
2013-01-24 12:27:00,67.3,58.8,30.07,South,180,9.2,11.2,74,0.00,,,0.00,WUHU216HW,2013-01-24 18:27:00,
2013-01-24 12:32:00,67.5,59.0,30.07,SSW,203,8.5,11.2,74,0.00,,,0.00,WUHU216HW,2013-01-24 18:32:00,
2013-01-24 12:37:00,68.0,59.5,30.08,SW,225,8.9,10.5,74,0.00,,,0.00,WUHU216HW,2013-01-24 18:37:00,
2013-01-24 12:42:00,68.8,59.4,30.07,SSW,203,8.1,10.5,72,0.00,,,0.00,WUHU216HW,2013-01-24 18:42:00,
2013-01-24 12:47:00,69.3,59.5,30.07,SSW,203,9.4,10.5,71,0.00,,,0.00,WUHU216HW,2013-01-24 18:47:00,
2013-01-24 12:52:00,70.0,59.8,30.07,SSW,203,6.0,10.5,70,0.00,,,0.00,WUHU216HW,2013-01-24 18:52:00,
2013-01-24 12:57:00,70.4,60.1,30.07,SSE,158,6.7,11.0,70,0.00,,,0.00,WUHU216HW,2013-01-24 18:57:00,
2013-01-24 13:02:00,70.4,59.7,30.07,SSW,203,5.4,11.0,69,0.00,,,0.00,WUHU216HW,2013-01-24 19:02:00,
2013-01-24 13:07:00,70.2,59.5,30.06,SSE,158,8.7,10.3,69,0.00,,,0.00,WUHU216HW,2013-01-24 19:07:00,
2013-01-24 13:12:00,69.8,59.1,30.06,SSW,203,7.6,10.3,69,0.00,,,0.00,WUHU216HW,2013-01-24 19:12:00,
2013-01-24 13:17:00,70.2,59.9,30.06,SW,225,8.5,9.8,70,0.00,,,0.00,WUHU216HW,2013-01-24 19:17:00,
2013-01-24 13:22:00,70.9,59.9,30.06,SSW,203,8.5,11.4,68,0.00,,,0.00,WUHU216HW,2013-01-24 19:22:00,
2013-01-24 13:27:00,71.6,60.1,30.05,South,180,8.7,11.4,67,0.00,,,0.00,WUHU216HW,2013-01-24 19:27:00,
2013-01-24 13:32:00,72.4,60.8,30.05,SW,225,6.0,11.2,67,0.00,,,0.00,WUHU216HW,2013-01-24 19:32:00,
2013-01-24 13:37:00,72.5,60.5,30.05,South,180,6.9,11.0,66,0.00,,,0.00,WUHU216HW,2013-01-24 19:37:00,
2013-01-24 13:42:00,72.4,60.3,30.04,South,180,9.8,11.4,66,0.00,,,0.00,WUHU216HW,2013-01-24 19:42:00,
2013-01-24 13:47:00,72.7,60.2,30.04,SSE,158,9.2,11.6,65,0.00,,,0.00,WUHU216HW,2013-01-24 19:47:00,
2013-01-24 13:52:00,73.1,60.1,30.03,SSE,158,11.4,12.1,64,0.00,,,0.00,WUHU216HW,2013-01-24 19:52:00,
2013-01-24 13:57:00,73.4,60.5,30.04,SW,225,9.2,12.1,64,0.00,,,0.00,WUHU216HW,2013-01-24 19:57:00,
2013-01-24 14:02:00,73.4,60.5,30.03,SSW,203,7.2,11.4,64,0.00,,,0.00,WUHU216HW,2013-01-24 20:02:00,
2013-01-24 14:07:00,73.8,60.9,30.03,SSW,203,7.8,11.2,64,0.00,,,0.00,WUHU216HW,2013-01-24 20:07:00,
2013-01-24 14:12:00,74.0,60.6,30.03,SSW,203,5.1,11.2,63,0.00,,,0.00,WUHU216HW,2013-01-24 20:12:00,
2013-01-24 14:17:00,74.3,60.9,30.02,South,180,5.8,11.2,63,0.00,,,0.00,WUHU216HW,2013-01-24 20:17:00,
2013-01-24 14:22:00,74.5,60.2,30.02,SSW,203,10.5,11.4,61,0.00,,,0.00,WUHU216HW,2013-01-24 20:22:00,
2013-01-24 14:27:00,75.1,60.8,30.02,SSW,203,8.1,11.4,61,0.00,,,0.00,WUHU216HW,2013-01-24 20:27:00,
2013-01-24 14:32:00,75.2,60.9,30.02,SSW,203,8.5,10.5,61,0.00,,,0.00,WUHU216HW,2013-01-24 20:32:00,
2013-01-24 14:37:00,75.2,60.9,30.02,SW,225,6.7,11.0,61,0.00,,,0.00,WUHU216HW,2013-01-24 20:37:00,
2013-01-24 14:42:00,75.6,60.9,30.02,SSW,203,6.0,11.0,60,0.00,,,0.00,WUHU216HW,2013-01-24 20:42:00,
2013-01-24 14:47:00,75.6,60.3,30.02,SSE,158,11.6,11.6,59,0.00,,,0.00,WUHU216HW,2013-01-24 20:47:00,
2013-01-24 14:52:00,75.4,60.1,30.02,SSW,203,11.0,11.6,59,0.00,,,0.00,WUHU216HW,2013-01-24 20:52:00,
2013-01-24 14:57:00,75.4,60.7,30.02,SW,225,9.2,11.6,60,0.00,,,0.00,WUHU216HW,2013-01-24 20:57:00,
2013-01-24 15:02:00,75.8,60.5,30.01,SW,225,8.5,11.0,59,0.00,,,0.00,WUHU216HW,2013-01-24 21:02:00,
2013-01-24 15:07:00,75.8,60.5,30.01,SSW,203,10.1,11.9,59,0.00,,,0.00,WUHU216HW,2013-01-24 21:07:00,
2013-01-24 15:12:00,76.0,60.1,30.01,SSW,203,8.3,11.9,58,0.00,,,0.00,WUHU216HW,2013-01-24 21:12:00,
2013-01-24 15:17:00,76.0,60.1,30.01,SSW,203,6.3,11.4,58,0.00,,,0.00,WUHU216HW,2013-01-24 21:17:00,
2013-01-24 15:22:00,76.3,60.5,30.01,South,180,7.6,11.4,58,0.00,,,0.00,WUHU216HW,2013-01-24 21:22:00,
2013-01-24 15:27:00,76.3,60.5,30.01,SSW,203,5.4,11.2,58,0.00,,,0.00,WUHU216HW,2013-01-24 21:27:00,
2013-01-24 15:32:00,76.5,60.6,30.01,SSE,158,5.4,11.2,58,0.00,,,0.00,WUHU216HW,2013-01-24 21:32:00,
2013-01-24 15:37:00,76.7,60.3,30.01,South,180,12.3,12.3,57,0.00,,,0.00,WUHU216HW,2013-01-24 21:37:00,
2013-01-24 15:42:00,76.7,60.8,30.01,SSW,203,5.4,12.3,58,0.00,,,0.00,WUHU216HW,2013-01-24 21:42:00,
2013-01-24 15:47:00,76.7,60.8,30.01,SSE,158,6.3,12.3,58,0.00,,,0.00,WUHU216HW,2013-01-24 21:47:00,
2013-01-24 15:52:00,76.1,60.8,30.01,SSW,203,4.0,10.5,59,0.00,,,0.00,WUHU216HW,2013-01-24 21:52:00,
2013-01-24 15:57:00,76.0,61.1,30.01,SSE,158,12.1,12.1,60,0.00,,,0.00,WUHU216HW,2013-01-24 21:57:00,
2013-01-24 16:02:00,75.6,60.9,30.00,SSE,158,9.2,12.1,60,0.00,,,0.00,WUHU216HW,2013-01-24 22:02:00,
2013-01-24 16:07:00,75.6,61.2,30.00,SSE,158,6.9,11.4,61,0.00,,,0.00,WUHU216HW,2013-01-24 22:07:00,
2013-01-24 16:12:00,75.6,61.2,30.00,SSE,158,9.6,10.1,61,0.00,,,0.00,WUHU216HW,2013-01-24 22:12:00,
2013-01-24 16:17:00,75.6,61.2,30.00,SSE,158,8.5,10.5,61,0.00,,,0.00,WUHU216HW,2013-01-24 22:17:00,
2013-01-24 16:22:00,75.4,61.5,30.00,SSE,158,11.4,11.4,62,0.00,,,0.00,WUHU216HW,2013-01-24 22:22:00,
2013-01-24 16:27:00,75.2,61.4,30.00,SSE,158,7.2,11.4,62,0.00,,,0.00,WUHU216HW,2013-01-24 22:27:00,
2013-01-24 16:32:00,74.9,61.0,30.00,South,180,10.7,11.4,62,0.00,,,0.00,WUHU216HW,2013-01-24 22:32:00,
2013-01-24 16:37:00,74.5,61.1,30.00,SSE,158,8.3,10.7,63,0.00,,,0.00,WUHU216HW,2013-01-24 22:37:00,
2013-01-24 16:42:00,74.5,61.6,30.00,SSE,158,8.7,12.8,64,0.00,,,0.00,WUHU216HW,2013-01-24 22:42:00,
2013-01-24 16:47:00,74.3,61.4,29.99,SSE,158,8.1,12.8,64,0.00,,,0.00,WUHU216HW,2013-01-24 22:47:00,
2013-01-24 16:52:00,74.2,61.7,29.99,SSE,158,9.2,11.4,65,0.00,,,0.00,WUHU216HW,2013-01-24 22:52:00,
2013-01-24 16:57:00,73.8,61.3,29.99,South,180,8.9,9.8,65,0.00,,,0.00,WUHU216HW,2013-01-24 22:57:00,
2013-01-24 17:02:00,73.8,61.3,29.99,SE,135,6.9,11.0,65,0.00,,,0.00,WUHU216HW,2013-01-24 23:02:00,
2013-01-24 17:07:00,73.4,61.4,29.99,SE,135,9.2,11.0,66,0.00,,,0.00,WUHU216HW,2013-01-24 23:07:00,
2013-01-24 17:12:00,73.1,61.0,29.99,SE,135,6.3,10.3,66,0.00,,,0.00,WUHU216HW,2013-01-24 23:12:00,
2013-01-24 17:17:00,72.9,60.8,29.99,ESE,113,6.9,10.7,66,0.00,,,0.00,WUHU216HW,2013-01-24 23:17:00,
2013-01-24 17:22:00,72.7,60.7,29.99,SSE,158,6.7,10.7,66,0.00,,,0.00,WUHU216HW,2013-01-24 23:22:00,
2013-01-24 17:27:00,72.4,60.8,29.99,SE,135,6.0,10.1,67,0.00,,,0.00,WUHU216HW,2013-01-24 23:27:00,
2013-01-24 17:32:00,72.2,60.6,29.99,SSE,158,4.9,8.5,67,0.00,,,0.00,WUHU216HW,2013-01-24 23:32:00,
2013-01-24 17:37:00,71.8,60.3,29.99,SE,135,4.7,7.6,67,0.00,,,0.00,WUHU216HW,2013-01-24 23:37:00,
2013-01-24 17:42:00,71.5,60.0,29.99,SE,135,6.9,7.6,67,0.00,,,0.00,WUHU216HW,2013-01-24 23:42:00,
2013-01-24 17:47:00,71.3,59.8,29.99,SSE,158,4.7,7.6,67,0.00,,,0.00,WUHU216HW,2013-01-24 23:47:00,
2013-01-24 17:52:00,71.1,59.6,29.99,South,180,5.1,7.6,67,0.00,,,0.00,WUHU216HW,2013-01-24 23:52:00,
2013-01-24 17:57:00,70.7,59.7,29.99,SSE,158,7.6,8.7,68,0.00,,,0.00,WUHU216HW,2013-01-24 23:57:00,
2013-01-24 18:02:00,70.4,59.3,29.99,SSE,158,5.1,9.2,68,0.00,,,0.00,WUHU216HW,2013-01-25 00:02:00,
2013-01-24 18:07:00,70.2,59.5,29.99,SE,135,6.0,9.2,69,0.00,,,0.00,WUHU216HW,2013-01-25 00:07:00,
2013-01-24 18:12:00,70.0,59.3,29.99,SE,135,6.3,7.8,69,0.00,,,0.00,WUHU216HW,2013-01-25 00:12:00,
2013-01-24 18:17:00,69.8,59.6,29.99,SE,135,7.8,7.8,70,0.00,,,0.00,WUHU216HW,2013-01-25 00:17:00,
2013-01-24 18:22:00,69.7,59.4,29.99,SE,135,4.9,8.5,70,0.00,,,0.00,WUHU216HW,2013-01-25 00:22:00,
2013-01-24 18:27:00,69.3,59.1,29.99,SE,135,6.0,8.5,70,0.00,,,0.00,WUHU216HW,2013-01-25 00:27:00,
2013-01-24 18:32:00,69.1,59.0,29.98,ESE,113,5.4,8.3,70,0.00,,,0.00,WUHU216HW,2013-01-25 00:32:00,
2013-01-24 18:37:00,68.9,59.1,29.99,SE,135,5.8,8.3,71,0.00,,,0.00,WUHU216HW,2013-01-25 00:37:00,
2013-01-24 18:42:00,68.8,59.0,29.99,ESE,113,5.6,8.3,71,0.00,,,0.00,WUHU216HW,2013-01-25 00:42:00,
2013-01-24 18:47:00,68.6,58.9,29.99,SE,135,4.9,8.3,71,0.00,,,0.00,WUHU216HW,2013-01-25 00:47:00,
2013-01-24 18:52:00,68.4,59.0,29.99,SE,135,4.9,6.9,72,0.00,,,0.00,WUHU216HW,2013-01-25 00:52:00,
2013-01-24 18:57:00,68.2,58.9,29.99,SE,135,4.0,6.7,72,0.00,,,0.00,WUHU216HW,2013-01-25 00:57:00,
2013-01-24 19:02:00,68.0,59.1,29.99,ESE,113,5.8,6.0,73,0.00,,,0.00,WUHU216HW,2013-01-25 01:02:00,
2013-01-24 19:07:00,67.7,58.8,29.99,ESE,113,4.7,6.5,73,0.00,,,0.00,WUHU216HW,2013-01-25 01:07:00,
2013-01-24 19:12:00,67.5,59.0,29.99,ESE,113,4.3,6.5,74,0.00,,,0.00,WUHU216HW,2013-01-25 01:12:00,
2013-01-24 19:17:00,67.3,58.8,29.99,ESE,113,6.3,6.9,74,0.00,,,0.00,WUHU216HW,2013-01-25 01:17:00,
2013-01-24 19:22:00,67.1,58.6,29.99,ESE,113,5.4,6.9,74,0.00,,,0.00,WUHU216HW,2013-01-25 01:22:00,
2013-01-24 19:27:00,67.0,58.4,29.99,ESE,113,3.4,6.7,74,0.00,,,0.00,WUHU216HW,2013-01-25 01:27:00,
2013-01-24 19:32:00,66.8,58.2,29.99,East,90,3.6,5.8,74,0.00,,,0.00,WUHU216HW,2013-01-25 01:32:00,
2013-01-24 19:37:00,66.6,58.1,29.99,ESE,113,5.1,6.5,74,0.00,,,0.00,WUHU216HW,2013-01-25 01:37:00,
2013-01-24 19:42:00,66.6,58.4,29.99,ESE,113,3.8,6.5,75,0.00,,,0.00,WUHU216HW,2013-01-25 01:42:00,
2013-01-24 19:47:00,66.4,58.2,29.99,ESE,113,4.0,5.4,75,0.00,,,0.00,WUHU216HW,2013-01-25 01:47:00,
2013-01-24 19:52:00,66.2,58.1,29.99,East,90,4.7,5.4,75,0.00,,,0.00,WUHU216HW,2013-01-25 01:52:00,
2013-01-24 19:57:00,66.1,57.9,29.99,East,90,4.3,5.6,75,0.00,,,0.00,WUHU216HW,2013-01-25 01:57:00,
2013-01-24 20:02:00,65.9,58.1,29.99,ESE,113,5.4,7.2,76,0.00,,,0.00,WUHU216HW,2013-01-25 02:02:00,
2013-01-24 20:07:00,65.5,57.8,29.99,SE,135,5.1,7.2,76,0.00,,,0.00,WUHU216HW,2013-01-25 02:07:00,
2013-01-24 20:12:00,65.2,57.8,29.99,ESE,113,6.0,8.1,77,0.00,,,0.00,WUHU216HW,2013-01-25 02:12:00,
2013-01-24 20:17:00,65.2,58.2,29.99,East,90,7.6,9.2,78,0.00,,,0.00,WUHU216HW,2013-01-25 02:17:00,
2013-01-24 20:22:00,65.2,58.2,29.99,ESE,113,5.8,12.1,78,0.00,,,0.00,WUHU216HW,2013-01-25 02:22:00,
2013-01-24 20:27:00,65.0,58.0,29.99,ESE,113,5.8,12.1,78,0.00,,,0.00,WUHU216HW,2013-01-25 02:27:00,
2013-01-24 20:32:00,64.8,57.8,29.99,ESE,113,6.5,8.3,78,0.00,,,0.00,WUHU216HW,2013-01-25 02:32:00,
2013-01-24 20:37:00,64.4,57.4,29.99,East,90,5.4,7.6,78,0.00,,,0.00,WUHU216HW,2013-01-25 02:37:00,
2013-01-24 20:42:00,64.4,57.8,29.99,ESE,113,4.3,6.5,79,0.00,,,0.00,WUHU216HW,2013-01-25 02:42:00,
2013-01-24 20:47:00,64.4,57.4,29.99,ESE,113,5.1,6.3,78,0.00,,,0.00,WUHU216HW,2013-01-25 02:47:00,
2013-01-24 20:52:00,64.4,57.4,29.99,East,90,3.1,6.0,78,0.00,,,0.00,WUHU216HW,2013-01-25 02:52:00,
2013-01-24 20:57:00,64.1,57.4,29.99,East,90,3.8,5.6,79,0.00,,,0.00,WUHU216HW,2013-01-25 02:57:00,
2013-01-24 21:02:00,63.9,57.2,29.99,ESE,113,5.4,5.6,79,0.00,,,0.00,WUHU216HW,2013-01-25 03:02:00,
2013-01-24 21:07:00,63.7,57.1,29.99,ESE,113,5.6,5.6,79,0.00,,,0.00,WUHU216HW,2013-01-25 03:07:00,
2013-01-24 21:12:00,63.7,57.1,29.99,ESE,113,3.4,5.6,79,0.00,,,0.00,WUHU216HW,2013-01-25 03:12:00,
2013-01-24 21:17:00,63.5,56.9,29.99,East,90,4.3,5.6,79,0.00,,,0.00,WUHU216HW,2013-01-25 03:17:00,
2013-01-24 21:22:00,63.4,56.3,29.99,ESE,113,3.1,4.9,78,0.00,,,0.00,WUHU216HW,2013-01-25 03:22:00,
2013-01-24 21:27:00,63.2,56.5,29.99,ESE,113,4.3,4.9,79,0.00,,,0.00,WUHU216HW,2013-01-25 03:27:00,
2013-01-24 21:32:00,63.0,56.3,29.99,ESE,113,4.0,4.9,79,0.00,,,0.00,WUHU216HW,2013-01-25 03:32:00,
2013-01-24 21:37:00,62.6,56.0,29.99,East,90,3.6,4.9,79,0.00,,,0.00,WUHU216HW,2013-01-25 03:37:00,
2013-01-24 21:42:00,62.5,55.8,29.99,East,90,5.1,5.1,79,0.00,,,0.00,WUHU216HW,2013-01-25 03:42:00,
2013-01-24 21:47:00,62.3,56.0,29.99,ESE,113,5.1,5.6,80,0.00,,,0.00,WUHU216HW,2013-01-25 03:47:00,
2013-01-24 21:52:00,62.1,55.9,29.99,ESE,113,6.0,6.0,80,0.00,,,0.00,WUHU216HW,2013-01-25 03:52:00,
2013-01-24 21:57:00,61.9,56.1,29.99,East,90,4.9,6.3,81,0.00,,,0.00,WUHU216HW,2013-01-25 03:57:00,
2013-01-24 22:02:00,61.9,56.1,29.99,ESE,113,5.6,6.9,81,0.00,,,0.00,WUHU216HW,2013-01-25 04:02:00,
2013-01-24 22:07:00,61.7,55.9,29.99,East,90,5.8,7.8,81,0.00,,,0.00,WUHU216HW,2013-01-25 04:07:00,
2013-01-24 22:12:00,61.6,55.7,29.99,East,90,4.7,7.8,81,0.00,,,0.00,WUHU216HW,2013-01-25 04:12:00,
2013-01-24 22:17:00,61.6,56.1,29.99,East,90,3.6,6.9,82,0.00,,,0.00,WUHU216HW,2013-01-25 04:17:00,
2013-01-24 22:22:00,61.4,55.9,29.99,East,90,5.1,6.7,82,0.00,,,0.00,WUHU216HW,2013-01-25 04:22:00,
2013-01-24 22:27:00,61.2,56.1,29.99,ENE,68,6.9,7.4,83,0.00,,,0.00,WUHU216HW,2013-01-25 04:27:00,
2013-01-24 22:32:00,60.8,56.0,29.99,East,90,6.7,7.4,84,0.00,,,0.00,WUHU216HW,2013-01-25 04:32:00,
2013-01-24 22:37:00,60.7,55.5,29.99,ESE,113,5.4,7.4,83,0.00,,,0.00,WUHU216HW,2013-01-25 04:37:00,
2013-01-24 22:42:00,60.8,55.7,29.99,East,90,5.6,7.4,83,0.00,,,0.00,WUHU216HW,2013-01-25 04:42:00,
2013-01-24 22:47:00,60.7,55.5,29.99,ESE,113,5.6,6.7,83,0.00,,,0.00,WUHU216HW,2013-01-25 04:47:00,
2013-01-24 22:52:00,60.5,55.4,29.99,ESE,113,5.4,6.7,83,0.00,,,0.00,WUHU216HW,2013-01-25 04:52:00,
2013-01-24 22:57:00,60.3,55.2,29.99,ESE,113,5.1,7.6,83,0.00,,,0.00,WUHU216HW,2013-01-25 04:57:00,
2013-01-24 23:01:00,60.3,55.2,29.99,SE,135,5.4,7.6,83,0.00,,,0.00,WUHU216HW,2013-01-25 05:01:00,
2013-01-24 23:02:00,60.3,55.2,29.99,East,90,5.1,7.6,83,0.00,,,0.00,WUHU216HW,2013-01-25 05:02:00,
2013-01-24 23:03:00,60.1,55.0,29.99,ESE,113,4.9,7.6,83,0.00,,,0.00,WUHU216HW,2013-01-25 05:03:00,
2013-01-24 23:08:00,60.1,55.3,29.99,ESE,113,4.9,7.4,84,0.00,,,0.00,WUHU216HW,2013-01-25 05:08:00,
2013-01-24 23:13:00,59.9,55.1,29.99,ESE,113,4.7,7.4,84,0.00,,,0.00,WUHU216HW,2013-01-25 05:13:00,
2013-01-24 23:18:00,59.8,54.9,29.99,ESE,113,5.4,6.7,84,0.00,,,0.00,WUHU216HW,2013-01-25 05:18:00,
2013-01-24 23:23:00,59.6,54.7,29.99,East,90,4.3,6.5,84,0.00,,,0.00,WUHU216HW,2013-01-25 05:23:00,
2013-01-24 23:28:00,59.4,54.5,29.99,ESE,113,4.7,6.0,84,0.00,,,0.00,WUHU216HW,2013-01-25 05:28:00,
2013-01-24 23:33:00,59.2,54.4,29.99,East,90,4.3,5.4,84,0.00,,,0.00,WUHU216HW,2013-01-25 05:33:00,
2013-01-24 23:38:00,59.0,54.2,29.99,ESE,113,6.0,6.3,84,0.00,,,0.00,WUHU216HW,2013-01-25 05:38:00,
2013-01-24 23:43:00,58.7,53.8,29.99,ESE,113,6.3,6.3,84,0.00,,,0.00,WUHU216HW,2013-01-25 05:43:00,
2013-01-24 23:48:00,58.5,53.6,29.99,ESE,113,4.5,6.7,84,0.00,,,0.00,WUHU216HW,2013-01-25 05:48:00,
2013-01-24 23:53:00,58.1,53.6,29.99,ESE,113,5.4,6.7,85,0.00,,,0.00,WUHU216HW,2013-01-25 05:53:00,
2013-01-24 23:58:00,58.0,53.5,29.99,ESE,113,4.3,6.7,85,0.00,,,0.00,WUHU216HW,2013-01-25 05:58:00,